Location: Finnegan
(51.1333°N, 112.0833°W)
Time: 12:54:47
(UTC+00:00)

Envisat - Pass Details

Date: 10 December 2021
Orbit: 764 x 766 km, 98.2° (Epoch: 28 January)

Event Time Altitude Azimuth Distance (km) Brightness Sun altitude
Rises 13:27:00 0° 9° (N) 3,248 6.2 -16.8°
Reaches altitude 10° 13:29:25 10° 3° (N) 2,317 5.4 -16.4°
Maximum altitude 13:34:11 41° 294° (WNW) 1,098 3.3 -15.7°
Drops below altitude 10° 13:38:55 10° 225° (SW) 2,301 5.2 -15.0°
Sets 13:41:19 0° 219° (SW) 3,222 6.0 -14.7°
